Showing default

BEIDOU 2, 31115

Orbit data source: Space-Track

BEIDOU 2, 31115 is a payload satellite owned by CNSA (CN) that was launched on Fri, 13 Apr 2007 UTC via a CHANG ZHENG 3A launch vehicle from the Xichang Space Center, China (XSC). Payload-class satellites include a variety of spacecraft equipped with specific instruments for various scientific and technological missions. These include communications satellites like Starlink; space stations such as the ISS; scientific satellites like the Hubble; Earth observation satellites from companies like Planet Labs, Umbra, and HawkEye 360; GPS; miniature CubeSats for education and research; and military/defense satellites.

Loading next visibility...
Identifier
31115, 2007-011A
Orbit
Active
Country
Flag of CNCN / PRC
Related business
Manufacturer
CAST
Mission
Non-operational Defense Navigation
Bus & Motor
DFH-3, FY-25
Mass
2,320 kg wet, 1,300 kg dry
Launch date (UTC)
2007-04-13 (19 years ago)
Launch vehicle
CHANG ZHENG 3A
Launch site
Xichang Space Center, China (XSC)
Object type
Payload
Rocket body
Debris
Shape & HBR
Box + 2 Pan, 9.0 m
Radar Cross Section
13.998 m², Large (>1 m²)

Expand to show TLE details & history
Last TLE update: 4 days ago

TLE from 4 days ago
0 BEIDOU 2
1 31115U 07011A   26169.50719026  .00000025  00000-0  00000-0 0  9991
2 31115  50.9302 219.2344 0001760 332.5646  27.5055  1.77349429 76171
Epoch: 2026-06-18T12:10Z
TLE epoch observation values (Epoch: 2026-06-18T12:10:21.238Z)
Latitude
-0.00001°
Longitude
129.91335°
Altitude
22,447.791 km
Speed
3.719 km/s
True Right ascension
14h 37m 00s
True Declination
0° 00' 00"
Sunlit
Object was in daylight at epoch
Visualization orbit readout
Latitude
Unknown
Longitude
Unknown
Altitude
Unknown
Speed
Unknown
Apparent Right ascension
Unknown
Apparent Declination
Unknown
Sunlit
N/A
Visualization observer readout
Local Sidereal Time
23:21:49
Azimuth
Unknown
Elevation
Unknown
Doppler factor
Unknown
Orbital elements
Apogee altitude
22,457.367 km
Perigee altitude
22,447.219 km
Semi-major axis
28,830.43 km
Eccentricity
0.00018
Inclination
50.9302°
RAAN
219.2344°
Arg. of periapsis
332.5646°
True anomaly
27.51482°
Mean anomaly
27.5055°
Eccentric anomaly
27.51016°
Mean motion
0.44337 °/min
Orbital period
811.96 mins
BSTAR
0
Loading maneuver chart data...
Computing Atmospheric mass density...
Loading historical data...
Loading historical data...
Loading historical data...
Loading historical data...
Loading historical data...
Loading historical data...
Loading historical data...
Other satellites on launch #11 in the year 2007 (2007-04-13 UTC)

Documentation

Showing up to 5 results
|